This is the latest recevied weather packets stored in our database for station/object WC4PEM-11. If no packets are shown the sender has not sent any weather packets the latest 10 day(s).
| Time | Temp. | Humidity | Pressure | Rain* | Wind** | Luminosity | Snow |
|---|---|---|---|---|---|---|---|
| 1787848396 | 31.67° C | 68% | 1017.5 hPa | 0 mm | - | - | - |
| 1787848096 | 31.67° C | 68% | 1017.5 hPa | 0 mm | - | - | - |
| 1787847796 | 32.22° C | 68% | 1017.6 hPa | 0 mm | - | - | - |
| 1787847496 | 32.22° C | 69% | 1017.6 hPa | 0 mm | - | - | - |
| 1787847196 | 32.22° C | 69% | 1017.7 hPa | 0 mm | - | - | - |
| 1787847054 | 31.67° C | 68% | 1017.7 hPa | 0 mm | - | - | - |
| 1787846896 | 31.67° C | 68% | 1017.7 hPa | 0 mm | - | - | - |
| 1787846596 | 31.67° C | 68% | 1017.7 hPa | 0 mm | - | - | - |
| 1787846296 | 31.67° C | 70% | 1017.7 hPa | 0 mm | - | - | - |
| 1787845996 | 31.67° C | 70% | 1017.7 hPa | 0 mm | - | - | - |
| 1787845696 | 31.67° C | 70% | 1017.7 hPa | 0 mm | - | - | - |
| 1787845396 | 31.67° C | 70% | 1017.7 hPa | 0 mm | - | - | - |
| 1787845096 | 31.11° C | 72% | 1017.7 hPa | 0 mm | - | - | - |
| 1787844796 | 31.11° C | 72% | 1017.6 hPa | 0 mm | - | - | - |
| 1787844496 | 30.56° C | 76% | 1017.6 hPa | 0 mm | - | - | - |
| 1787844324 | 30.56° C | 74% | 1017.5 hPa | 0 mm | - | - | - |
| 1787844196 | 30.56° C | 74% | 1017.5 hPa | 0 mm | - | - | - |
| 1787843896 | 30.56° C | 77% | 1017.6 hPa | 0 mm | - | - | - |
| 1787843596 | 30.56° C | 78% | 1017.5 hPa | 0 mm | - | - | - |
| 1787843296 | 30.56° C | 77% | 1017.5 hPa | 0 mm | - | - | - |
| 1787842996 | 30.56° C | 78% | 1017.5 hPa | 0 mm | - | - | - |
| 1787842696 | 30° C | 78% | 1017.4 hPa | 0 mm | - | - | - |
| 1787842396 | 30° C | 79% | 1017.4 hPa | 0 mm | - | - | - |
| 1787842096 | 30° C | 79% | 1017.5 hPa | 0 mm | - | - | - |
| 1787841796 | 29.44° C | 80% | 1017.5 hPa | 0 mm | - | - | - |
* Rain latest hour (hover to see other rain measurements)
** Current wind speed in m/s (hover to see current wind gust speed)